TimeMDT,TemperatureF,Dew PointF,Humidity,Sea Level PressureIn,VisibilityMPH,Wind Direction,Wind SpeedMPH,Gust SpeedMPH,PrecipitationIn,Events,Conditions,WindDirDegrees,DateUTC
12:55 AM,32.0,26.6,80,30.23,10.0,NNE,4.6,-,N/A,,Partly Cloudy,20,2012-10-04 06:55:00
1:55 AM,33.8,26.6,75,30.24,10.0,SE,4.6,-,N/A,,Mostly Cloudy,130,2012-10-04 07:55:00
2:55 AM,35.6,26.6,70,30.24,10.0,NE,4.6,-,N/A,,Mostly Cloudy,50,2012-10-04 08:55:00
3:55 AM,33.8,26.6,75,30.22,10.0,East,6.9,-,N/A,,Overcast,80,2012-10-04 09:55:00
4:55 AM,35.6,26.6,70,30.22,10.0,NE,6.9,-,N/A,,Overcast,50,2012-10-04 10:55:00
5:55 AM,33.8,24.8,70,30.28,10.0,NE,8.1,-,N/A,,Overcast,50,2012-10-04 11:55:00
6:55 AM,35.6,26.6,70,30.30,10.0,ENE,6.9,-,N/A,,Overcast,70,2012-10-04 12:55:00
7:55 AM,35.6,26.6,70,30.34,10.0,NE,6.9,-,N/A,,Overcast,50,2012-10-04 13:55:00
8:55 AM,35.6,26.6,70,30.35,10.0,NE,5.8,-,N/A,,Mostly Cloudy,50,2012-10-04 14:55:00
9:55 AM,37.4,28.4,70,30.34,10.0,East,6.9,-,N/A,,Mostly Cloudy,90,2012-10-04 15:55:00
10:55 AM,41.0,23.0,49,30.33,10.0,East,8.1,-,N/A,,Mostly Cloudy,100,2012-10-04 16:55:00
11:59 AM,42.8,23.0,46,30.31,10.0,ENE,11.5,-,N/A,,Mostly Cloudy,70,2012-10-04 17:59:00
12:55 PM,46.4,24.8,43,30.27,10.0,East,9.2,-,N/A,,Mostly Cloudy,100,2012-10-04 18:55:00
1:55 PM,48.2,26.6,43,30.23,10.0,East,12.7,23.0,N/A,,Mostly Cloudy,90,2012-10-04 19:55:00
2:55 PM,48.2,26.6,43,30.21,10.0,East,9.2,-,N/A,,Mostly Cloudy,90,2012-10-04 20:55:00
3:55 PM,46.4,26.6,46,30.21,70.0,NE,9.2,-,N/A,,Mostly Cloudy,40,2012-10-04 21:55:00
4:55 PM,48.2,26.6,43,30.19,25.0,East,5.8,-,N/A,,Mostly Cloudy,80,2012-10-04 22:55:00
5:55 PM,46.4,24.8,43,30.20,25.0,East,10.4,-,N/A,,Mostly Cloudy,90,2012-10-04 23:55:00
6:55 PM,41.0,24.8,53,30.25,25.0,ENE,5.8,-,N/A,,Mostly Cloudy,70,2012-10-05 00:55:00
7:55 PM,41.0,24.8,53,30.24,25.0,NE,2.3,-,N/A,,Mostly Cloudy,40,2012-10-05 01:55:00
8:55 PM,39.2,26.6,61,30.23,25.0,North,5.8,-,N/A,,Mostly Cloudy,10,2012-10-05 02:55:00
9:55 PM,37.4,26.6,65,30.25,25.0,NW,6.9,-,N/A,,Mostly Cloudy,310,2012-10-05 03:55:00
10:55 PM,33.8,26.6,75,30.23,25.0,NW,6.9,-,N/A,,Mostly Cloudy,310,2012-10-05 04:55:00
11:55 PM,35.6,26.6,70,30.21,25.0,WSW,3.5,-,N/A,,Mostly Cloudy,250,2012-10-05 05:55:00